| time (UTC) | temp F | wind direction | speed knots | gust knots | rain 1hr in | rain 24hr in | rain mn in | humidity % | barometer mb |
| 20260504043602 | 50 | 228 | 0.9 | 3.5 | 0.00 | 0.00 | 0.00 | 50 | 1013.0 |
| 20260504042703 | 50 | 245 | 0.9 | 6.1 | 0.00 | 0.00 | 0.00 | 50 | 1012.9 |
| 20260504041802 | 50 | 235 | 0.9 | 3.5 | 0.00 | 0.00 | 0.00 | 51 | 1012.8 |
| 20260504040903 | 50 | 283 | 0.9 | 3.5 | 0.00 | 0.00 | 0.00 | 51 | 1012.7 |
| 20260504040003 | 49 | 218 | 0.9 | 4.3 | 0.00 | 0.00 | 0.00 | 52 | 1012.7 |
| 20260504035403 | 49 | 170 | 0.9 | 4.3 | 0.00 | 0.00 | 0.00 | 52 | 1012.7 |
| 20260504034503 | 49 | 0 | 0.0 | 2.6 | 0.00 | 0.00 | 0.00 | 51 | 1012.7 |
| 20260504033624 | 49 | 316 | 0.9 | 2.6 | 0.00 | 0.00 | 0.00 | 51 | 1012.6 |
| 20260504032703 | 49 | 0 | 0.0 | 1.7 | 0.00 | 0.00 | 0.00 | 52 | 1012.7 |
| 20260504031824 | 48 | 0 | 0.0 | 1.7 | 0.00 | 0.00 | 0.00 | 52 | 1012.7 |
| 20260504030903 | 48 | 0 | 0.0 | 1.7 | 0.00 | 0.00 | 0.00 | 55 | 1012.6 |
| 20260504030024 | 47 | 0 | 0.0 | 2.6 | 0.00 | 0.00 | 0.00 | 54 | 1012.7 |
| 20260504025403 | 47 | 0 | 0.0 | 1.7 | 0.00 | 0.00 | 0.00 | 58 | 1012.6 |
| 20260504024503 | 46 | 0 | 0.0 | 0.9 | 0.00 | 0.00 | 0.00 | 58 | 1012.6 |
| 20260504023605 | 46 | 0 | 0.0 | 1.7 | 0.00 | 0.00 | 0.00 | 58 | 1012.6 |
| 20260504022704 | 46 | 0 | 0.0 | 1.7 | 0.00 | 0.00 | 0.00 | 59 | 1012.7 |
| 20260504021825 | 46 | 0 | 0.0 | 1.7 | 0.00 | 0.00 | 0.00 | 59 | 1012.7 |
| 20260504020925 | 47 | 0 | 0.0 | 1.7 | 0.00 | 0.00 | 0.00 | 58 | 1012.7 |
| 20260504020005 | 47 | 0 | 0.0 | 0.9 | 0.00 | 0.00 | 0.00 | 58 | 1012.7 |
| 20260504015405 | 48 | 0 | 0.0 | 0.0 | 0.00 | 0.00 | 0.00 | 58 | 1012.7 |
| 20260504014504 | 48 | 0 | 0.0 | 0.9 | 0.00 | 0.00 | 0.00 | 57 | 1012.6 |
| 20260504013604 | 48 | 0 | 0.0 | 0.9 | 0.00 | 0.00 | 0.00 | 56 | 1012.5 |
| 20260504012704 | 49 | 0 | 0.0 | 0.9 | 0.00 | 0.00 | 0.00 | 54 | 1012.4 |
| 20260504011825 | 50 | 0 | 0.0 | 0.9 | 0.00 | 0.00 | 0.00 | 51 | 1012.4 |
| 20260504010904 | 50 | 271 | 0.9 | 1.7 | 0.00 | 0.00 | 0.00 | 50 | 1012.3 |
| 20260504010004 | 51 | 0 | 0.0 | 0.9 | 0.00 | 0.00 | 0.00 | 48 | 1012.1 |
| 20260504005425 | 52 | 0 | 0.0 | 0.9 | 0.00 | 0.00 | 0.00 | 48 | 1012.1 |
| 20260504004504 | 53 | 0 | 0.0 | 0.9 | 0.00 | 0.00 | 0.00 | 42 | 1011.9 |
| 20260504003604 | 54 | 0 | 0.0 | 0.9 | 0.00 | 0.00 | 0.00 | 39 | 1011.9 |
| 20260504002704 | 54 | 292 | 0.9 | 2.6 | 0.00 | 0.00 | 0.00 | 39 | 1011.8 |
| 20260504001825 | 55 | 0 | 0.0 | 3.5 | 0.00 | 0.00 | 0.00 | 37 | 1011.6 |
| 20260504000904 | 56 | 280 | 0.9 | 3.5 | 0.00 | 0.00 | 0.00 | 36 | 1011.3 |
| 20260504000004 | 56 | 277 | 0.9 | 2.6 | 0.00 | 0.00 | 0.00 | 37 | 1011.3 |
| 20260503235404 | 56 | 291 | 0.9 | 1.7 | 0.00 | 0.00 | 0.00 | 35 | 1011.2 |
| 20260503234525 | 56 | 300 | 0.9 | 3.5 | 0.00 | 0.00 | 0.00 | 36 | 1011.1 |
| 20260503233604 | 57 | 284 | 1.7 | 4.3 | 0.00 | 0.00 | 0.00 | 36 | 1010.9 |
| 20260503232704 | 57 | 306 | 1.7 | 3.5 | 0.00 | 0.00 | 0.00 | 34 | 1010.9 |
| 20260503231804 | 58 | 299 | 0.9 | 3.5 | 0.00 | 0.00 | 0.00 | 35 | 1010.8 |
| 20260503230904 | 58 | 322 | 1.7 | 5.2 | 0.00 | 0.00 | 0.00 | 31 | 1010.8 |
| 20260503230004 | 58 | 322 | 2.6 | 9.6 | 0.00 | 0.00 | 0.00 | 31 | 1010.7 |
| 20260503225425 | 59 | 330 | 2.6 | 9.6 | 0.00 | 0.00 | 0.00 | 31 | 1010.7 |
| 20260503224504 | 59 | 328 | 2.6 | 6.1 | 0.00 | 0.00 | 0.00 | 30 | 1010.6 |
| 20260503223624 | 59 | 323 | 2.6 | 8.7 | 0.00 | 0.00 | 0.00 | 31 | 1010.6 |
| 20260503222703 | 59 | 325 | 2.6 | 4.3 | 0.00 | 0.00 | 0.00 | 31 | 1010.6 |
| 20260503221825 | 59 | 321 | 2.6 | 7.0 | 0.00 | 0.00 | 0.00 | 29 | 1010.6 |
| 20260503220904 | 60 | 321 | 2.6 | 8.7 | 0.00 | 0.00 | 0.00 | 30 | 1010.6 |
| 20260503220004 | 59 | 329 | 3.5 | 8.7 | 0.00 | 0.00 | 0.00 | 29 | 1010.6 |
| 20260503215425 | 59 | 317 | 4.3 | 11.3 | 0.00 | 0.00 | 0.00 | 28 | 1010.6 |
| 20260503214503 | 59 | 324 | 3.5 | 9.6 | 0.00 | 0.00 | 0.00 | 28 | 1010.7 |
| 20260503213603 | 59 | 318 | 3.5 | 13.0 | 0.00 | 0.00 | 0.00 | 29 | 1010.6 |
| 20260503212724 | 59 | 328 | 3.5 | 13.0 | 0.00 | 0.00 | 0.00 | 29 | 1010.6 |
| 20260503211825 | 59 | 331 | 5.2 | 13.0 | 0.00 | 0.00 | 0.00 | 29 | 1010.5 |
| 20260503210903 | 60 | 314 | 3.5 | 8.7 | 0.00 | 0.00 | 0.00 | 30 | 1010.5 |
| 20260503210004 | 59 | 335 | 4.3 | 13.0 | 0.00 | 0.00 | 0.00 | 29 | 1010.4 |
| 20260503205403 | 59 | 336 | 3.5 | 8.7 | 0.00 | 0.00 | 0.00 | 30 | 1010.5 |
| 20260503204504 | 59 | 328 | 3.5 | 7.8 | 0.00 | 0.00 | 0.00 | 29 | 1010.6 |
| 20260503203603 | 59 | 328 | 3.5 | 8.7 | 0.00 | 0.00 | 0.00 | 32 | 1010.5 |
| 20260503202703 | 58 | 329 | 5.2 | 13.0 | 0.00 | 0.00 | 0.00 | 31 | 1010.6 |
| 20260503201803 | 58 | 319 | 4.3 | 13.0 | 0.00 | 0.00 | 0.00 | 29 | 1010.5 |
| 20260503200905 | 60 | 328 | 2.6 | 8.7 | 0.00 | 0.00 | 0.00 | 31 | 1010.7 |
| 20260503200003 | 59 | 314 | 3.5 | 10.4 | 0.00 | 0.00 | 0.00 | 32 | 1010.8 |
| 20260503195403 | 58 | 319 | 4.3 | 11.3 | 0.00 | 0.00 | 0.00 | 31 | 1010.9 |
| 20260503194503 | 58 | 329 | 4.3 | 10.4 | 0.00 | 0.00 | 0.00 | 30 | 1010.8 |
| 20260503193603 | 58 | 329 | 3.5 | 7.8 | 0.00 | 0.00 | 0.00 | 32 | 1011.0 |
| 20260503192724 | 57 | 328 | 3.5 | 12.2 | 0.00 | 0.00 | 0.00 | 33 | 1011.1 |
| 20260503191803 | 57 | 334 | 5.2 | 11.3 | 0.00 | 0.00 | 0.00 | 32 | 1011.1 |
| 20260503190903 | 57 | 331 | 5.2 | 11.3 | 0.00 | 0.00 | 0.00 | 32 | 1011.2 |
| 20260503190003 | 58 | 313 | 4.3 | 12.2 | 0.00 | 0.00 | 0.00 | 35 | 1011.3 |
| 20260503185403 | 58 | 325 | 4.3 | 12.2 | 0.00 | 0.00 | 0.00 | 33 | 1011.3 |
| 20260503184503 | 57 | 330 | 3.5 | 11.3 | 0.00 | 0.00 | 0.00 | 33 | 1011.3 |
| 20260503183603 | 57 | 321 | 3.5 | 10.4 | 0.00 | 0.00 | 0.00 | 35 | 1011.4 |
| 20260503182703 | 56 | 328 | 3.5 | 11.3 | 0.00 | 0.00 | 0.00 | 37 | 1011.4 |
| 20260503181824 | 55 | 329 | 4.3 | 13.0 | 0.00 | 0.00 | 0.00 | 36 | 1011.5 |
| 20260503180903 | 55 | 317 | 3.5 | 7.8 | 0.00 | 0.00 | 0.00 | 37 | 1011.4 |
| 20260503180004 | 55 | 322 | 4.3 | 10.4 | 0.00 | 0.00 | 0.00 | 39 | 1011.6 |
| 20260503175403 | 54 | 324 | 2.6 | 8.7 | 0.00 | 0.00 | 0.00 | 37 | 1011.7 |
| 20260503174524 | 53 | 320 | 3.5 | 10.4 | 0.00 | 0.00 | 0.00 | 40 | 1011.8 |
| 20260503173604 | 54 | 312 | 4.3 | 8.7 | 0.00 | 0.00 | 0.00 | 40 | 1011.9 |
| 20260503172704 | 53 | 328 | 4.3 | 10.4 | 0.00 | 0.00 | 0.00 | 42 | 1011.9 |
| 20260503171804 | 53 | 315 | 4.3 | 15.6 | 0.00 | 0.00 | 0.00 | 39 | 1011.9 |
| 20260503170905 | 54 | 321 | 5.2 | 11.3 | 0.00 | 0.00 | 0.00 | 42 | 1012.0 |
| 20260503150924 | 52 | 332 | 2.6 | 7.0 | 0.00 | 0.00 | 0.00 | 36 | 1012.3 |
| 20260503130903 | 48 | 335 | 4.3 | 11.3 | 0.00 | 0.00 | 0.00 | 53 | 1012.4 |
| 20260503080925 | 46 | 338 | 2.6 | 6.1 | 0.00 | 0.01 | 0.00 | 54 | 1010.7 |
| 20260503072704 | 46 | 347 | 1.7 | 2.6 | 0.00 | 0.01 | 0.00 | 53 | 1010.7 |
| 20260503071804 | 46 | 341 | 1.7 | 4.3 | 0.00 | 0.01 | 0.00 | 52 | 1010.7 |
| 20260503070904 | 46 | 346 | 1.7 | 4.3 | 0.00 | 0.01 | 0.00 | 52 | 1010.7 |
| 20260503054504 | 48 | 334 | 2.6 | 5.2 | 0.00 | 0.01 | 0.00 | 46 | 1011.1 |
| 20260503053604 | 49 | 333 | 2.6 | 5.2 | 0.00 | 0.01 | 0.00 | 46 | 1011.1 |
| 20260503052704 | 49 | 341 | 2.6 | 7.0 | 0.00 | 0.01 | 0.00 | 45 | 1011.3 |
| 20260503051825 | 49 | 331 | 1.7 | 4.3 | 0.00 | 0.01 | 0.00 | 45 | 1011.3 |
| 20260503050904 | 49 | 344 | 2.6 | 3.5 | 0.00 | 0.01 | 0.00 | 45 | 1011.4 |
| 20260503050006 | 49 | 344 | 2.6 | 6.1 | 0.00 | 0.01 | 0.00 | 44 | 1011.5 |
| 20260503045404 | 50 | 337 | 2.6 | 6.1 | 0.00 | 0.01 | 0.00 | 43 | 1011.6 |
| 20260503044504 | 50 | 339 | 2.6 | 5.2 | 0.00 | 0.01 | 0.00 | 43 | 1011.5 |